Time,TemperatureF,DewpointF,PressureIn,WindDirection,WindDirectionDegrees,WindSpeedMPH,WindSpeedGustMPH,Humidity,HourlyPrecipIn,Conditions,Clouds,dailyrainin,SoftwareType,DateUTC
2013-05-21 00:01:00,63.1,62.6,30.15,North,-999,-999.0,9.0,98,0.00,,,0.12,meteohub,2013-05-21 04:01:00,
2013-05-21 00:02:00,63.1,62.6,30.15,North,-999,-999.0,9.0,98,0.00,,,0.12,meteohub,2013-05-21 04:02:00,
2013-05-21 00:07:00,63.1,62.6,30.15,North,-999,-999.0,-999.0,98,0.00,,,0.12,meteohub,2013-05-21 04:07:00,
2013-05-21 00:12:00,63.1,62.6,30.15,North,-999,-999.0,-999.0,98,0.00,,,0.12,meteohub,2013-05-21 04:12:00,
2013-05-21 00:17:00,63.1,62.6,30.15,North,-999,-999.0,-999.0,98,0.00,,,0.12,meteohub,2013-05-21 04:17:00,
2013-05-21 00:22:00,63.0,62.4,30.15,North,-999,-999.0,-999.0,98,0.00,,,0.12,meteohub,2013-05-21 04:22:00,
2013-05-21 00:27:00,62.8,62.2,30.16,SE,135,4.0,-999.0,98,0.00,,,0.12,meteohub,2013-05-21 04:27:00,
2013-05-21 00:32:00,62.4,61.9,30.16,North,-999,-999.0,4.0,98,0.00,,,0.12,meteohub,2013-05-21 04:32:00,
2013-05-21 00:37:00,62.4,61.9,30.16,North,-999,-999.0,4.0,98,0.00,,,0.12,meteohub,2013-05-21 04:37:00,
2013-05-21 00:42:00,62.4,61.9,30.12,North,-999,-999.0,-999.0,98,0.00,,,0.12,meteohub,2013-05-21 04:42:00,
2013-05-21 00:47:00,62.4,61.9,30.12,SE,135,5.0,-999.0,98,0.00,,,0.12,meteohub,2013-05-21 04:47:00,
2013-05-21 00:52:00,62.2,61.7,30.13,North,-999,-999.0,5.0,98,0.00,,,0.12,meteohub,2013-05-21 04:52:00,
2013-05-21 00:57:00,62.2,61.7,30.13,North,-999,-999.0,5.0,98,0.00,,,0.12,meteohub,2013-05-21 04:57:00,
2013-05-21 01:02:00,62.1,61.5,30.13,North,-999,-999.0,5.0,98,0.00,,,0.12,meteohub,2013-05-21 05:02:00,
2013-05-21 01:07:00,62.1,61.5,30.13,North,-999,-999.0,-999.0,98,0.00,,,0.00,meteohub,2013-05-21 05:07:00,
2013-05-21 01:12:00,61.9,61.3,30.13,North,-999,-999.0,-999.0,98,0.00,,,0.00,meteohub,2013-05-21 05:12:00,
2013-05-21 01:17:00,61.7,61.2,30.13,North,-999,-999.0,-999.0,98,0.00,,,0.00,meteohub,2013-05-21 05:17:00,
2013-05-21 01:22:00,61.7,61.2,30.13,North,-999,-999.0,-999.0,98,0.00,,,0.00,meteohub,2013-05-21 05:22:00,
2013-05-21 01:27:00,61.5,61.0,30.13,North,-999,-999.0,-999.0,98,0.00,,,0.00,meteohub,2013-05-21 05:27:00,
2013-05-21 01:32:00,61.5,61.0,30.13,North,-999,-999.0,-999.0,98,0.00,,,0.00,meteohub,2013-05-21 05:32:00,
2013-05-21 01:37:00,61.5,61.0,30.13,North,-999,-999.0,-999.0,98,0.00,,,0.00,meteohub,2013-05-21 05:37:00,
2013-05-21 01:42:00,61.5,61.0,30.13,North,-999,-999.0,-999.0,98,0.00,,,0.00,meteohub,2013-05-21 05:42:00,
2013-05-21 01:47:00,61.3,60.8,30.13,North,-999,-999.0,-999.0,98,0.00,,,0.00,meteohub,2013-05-21 05:47:00,
2013-05-21 01:52:00,61.3,60.8,30.13,North,-999,-999.0,-999.0,98,0.00,,,0.00,meteohub,2013-05-21 05:52:00,
2013-05-21 01:57:00,61.2,60.6,30.13,North,-999,-999.0,-999.0,98,0.00,,,0.00,meteohub,2013-05-21 05:57:00,
2013-05-21 02:02:00,61.0,60.4,30.14,North,-999,-999.0,-999.0,98,0.00,,,0.00,meteohub,2013-05-21 06:02:00,
2013-05-21 02:07:00,60.8,60.3,30.14,North,-999,-999.0,-999.0,98,0.00,,,0.00,meteohub,2013-05-21 06:07:00,
2013-05-21 02:12:00,60.8,60.3,30.14,North,-999,-999.0,-999.0,98,0.00,,,0.00,meteohub,2013-05-21 06:12:00,
2013-05-21 02:17:00,60.6,60.1,30.14,North,-999,-999.0,-999.0,98,0.00,,,0.00,meteohub,2013-05-21 06:17:00,
2013-05-21 02:22:00,60.6,60.1,30.14,North,-999,-999.0,-999.0,98,0.00,,,0.00,meteohub,2013-05-21 06:22:00,
2013-05-21 02:27:00,60.4,59.9,30.14,North,-999,-999.0,-999.0,98,0.00,,,0.00,meteohub,2013-05-21 06:27:00,
2013-05-21 02:32:00,60.4,59.9,30.14,North,-999,-999.0,-999.0,98,0.00,,,0.00,meteohub,2013-05-21 06:32:00,
2013-05-21 02:37:00,60.3,59.7,30.14,North,-999,-999.0,-999.0,98,0.00,,,0.00,meteohub,2013-05-21 06:37:00,
2013-05-21 02:42:00,60.3,59.7,30.14,North,-999,-999.0,-999.0,98,0.00,,,0.00,meteohub,2013-05-21 06:42:00,
2013-05-21 02:47:00,60.1,59.5,30.14,North,-999,-999.0,-999.0,98,0.00,,,0.00,meteohub,2013-05-21 06:47:00,
2013-05-21 02:52:00,59.9,59.4,30.14,North,-999,-999.0,-999.0,98,0.00,,,0.00,meteohub,2013-05-21 06:52:00,
2013-05-21 02:57:00,59.7,59.2,30.14,North,-999,-999.0,-999.0,98,0.00,,,0.00,meteohub,2013-05-21 06:57:00,
2013-05-21 03:02:00,59.4,58.8,30.15,North,-999,-999.0,-999.0,98,0.00,,,0.00,meteohub,2013-05-21 07:02:00,
2013-05-21 03:07:00,59.2,58.3,30.15,North,-999,-999.0,-999.0,97,0.00,,,0.00,meteohub,2013-05-21 07:07:00,
2013-05-21 03:12:00,59.0,58.1,30.15,North,-999,-999.0,-999.0,97,0.00,,,0.00,meteohub,2013-05-21 07:12:00,
2013-05-21 03:17:00,58.8,58.3,30.15,North,-999,-999.0,-999.0,98,0.00,,,0.00,meteohub,2013-05-21 07:17:00,
2013-05-21 03:22:00,58.8,58.3,30.15,North,-999,-999.0,-999.0,98,0.00,,,0.00,meteohub,2013-05-21 07:22:00,
2013-05-21 03:27:00,58.8,58.3,30.15,North,-999,-999.0,-999.0,98,0.00,,,0.00,meteohub,2013-05-21 07:27:00,
2013-05-21 03:32:00,58.6,58.1,30.15,North,-999,-999.0,-999.0,98,0.00,,,0.00,meteohub,2013-05-21 07:32:00,
2013-05-21 03:37:00,58.6,58.1,30.15,North,-999,-999.0,-999.0,98,0.00,,,0.00,meteohub,2013-05-21 07:37:00,
2013-05-21 03:42:00,58.6,58.1,30.15,North,-999,-999.0,-999.0,98,0.00,,,0.00,meteohub,2013-05-21 07:42:00,
2013-05-21 03:47:00,58.6,58.1,30.15,North,-999,-999.0,-999.0,98,0.00,,,0.00,meteohub,2013-05-21 07:47:00,
2013-05-21 03:52:00,58.5,57.9,30.16,North,-999,-999.0,-999.0,98,0.00,,,0.00,meteohub,2013-05-21 07:52:00,
2013-05-21 03:57:00,58.5,57.9,30.16,North,-999,-999.0,-999.0,98,0.00,,,0.00,meteohub,2013-05-21 07:57:00,
2013-05-21 04:02:00,58.5,57.9,30.16,North,-999,-999.0,-999.0,98,0.00,,,0.00,meteohub,2013-05-21 08:02:00,
2013-05-21 04:07:00,58.5,57.9,30.16,North,-999,-999.0,-999.0,98,0.00,,,0.00,meteohub,2013-05-21 08:07:00,
2013-05-21 04:12:00,58.5,57.9,30.16,North,-999,-999.0,-999.0,98,0.00,,,0.00,meteohub,2013-05-21 08:12:00,
2013-05-21 04:17:00,58.5,57.9,30.16,North,-999,-999.0,-999.0,98,0.00,,,0.00,meteohub,2013-05-21 08:17:00,
2013-05-21 04:22:00,58.8,58.3,30.15,North,-999,-999.0,-999.0,98,0.00,,,0.00,meteohub,2013-05-21 08:22:00,
2013-05-21 04:27:00,59.0,58.5,30.15,North,-999,-999.0,-999.0,98,0.00,,,0.00,meteohub,2013-05-21 08:27:00,
2013-05-21 04:32:00,58.8,58.3,30.15,North,-999,-999.0,-999.0,98,0.00,,,0.00,meteohub,2013-05-21 08:32:00,
2013-05-21 04:37:00,58.8,58.3,30.15,North,-999,-999.0,-999.0,98,0.00,,,0.00,meteohub,2013-05-21 08:37:00,
2013-05-21 04:42:00,58.6,58.1,30.12,North,-999,-999.0,-999.0,98,0.00,,,0.00,meteohub,2013-05-21 08:42:00,
2013-05-21 04:47:00,58.5,57.9,30.12,North,-999,-999.0,-999.0,98,0.00,,,0.00,meteohub,2013-05-21 08:47:00,
2013-05-21 04:52:00,58.3,57.7,30.12,North,-999,-999.0,-999.0,98,0.00,,,0.00,meteohub,2013-05-21 08:52:00,
2013-05-21 04:57:00,58.3,57.7,30.16,North,-999,-999.0,-999.0,98,0.00,,,0.00,meteohub,2013-05-21 08:57:00,
2013-05-21 05:02:00,58.3,57.7,30.16,North,-999,-999.0,-999.0,98,0.00,,,0.00,meteohub,2013-05-21 09:02:00,
2013-05-21 05:07:00,58.6,58.1,30.15,North,-999,-999.0,-999.0,98,0.00,,,0.00,meteohub,2013-05-21 09:07:00,
2013-05-21 05:12:00,59.0,58.5,30.15,North,-999,-999.0,-999.0,98,0.00,,,0.00,meteohub,2013-05-21 09:12:00,
2013-05-21 05:17:00,58.8,58.3,30.15,North,-999,-999.0,-999.0,98,0.00,,,0.00,meteohub,2013-05-21 09:17:00,
2013-05-21 05:22:00,58.8,58.3,30.15,North,-999,-999.0,-999.0,98,0.00,,,0.00,meteohub,2013-05-21 09:22:00,
2013-05-21 05:27:00,58.5,57.9,30.16,North,-999,-999.0,-999.0,98,0.00,,,0.00,meteohub,2013-05-21 09:27:00,
2013-05-21 05:32:00,58.5,57.9,30.16,North,-999,-999.0,-999.0,98,0.00,,,0.00,meteohub,2013-05-21 09:32:00,
2013-05-21 05:37:00,58.5,57.9,30.16,North,-999,-999.0,-999.0,98,0.00,,,0.00,meteohub,2013-05-21 09:37:00,
2013-05-21 05:42:00,58.8,58.3,30.12,North,-999,-999.0,-999.0,98,0.00,,,0.00,meteohub,2013-05-21 09:42:00,
2013-05-21 05:47:00,59.2,58.6,30.12,North,-999,-999.0,-999.0,98,0.00,,,0.00,meteohub,2013-05-21 09:47:00,
2013-05-21 05:52:00,59.2,58.6,30.12,North,-999,-999.0,-999.0,98,0.00,,,0.00,meteohub,2013-05-21 09:52:00,
2013-05-21 05:57:00,59.4,58.8,30.15,North,-999,-999.0,-999.0,98,0.00,,,0.00,meteohub,2013-05-21 09:57:00,
2013-05-21 06:02:00,59.5,59.0,30.15,North,-999,-999.0,-999.0,98,0.00,,,0.00,meteohub,2013-05-21 10:02:00,
2013-05-21 06:07:00,59.5,59.0,30.15,North,-999,-999.0,-999.0,98,0.00,,,0.00,meteohub,2013-05-21 10:07:00,
2013-05-21 06:12:00,59.7,59.2,30.14,North,-999,-999.0,-999.0,98,0.00,,,0.00,meteohub,2013-05-21 10:12:00,
2013-05-21 06:17:00,59.5,59.0,30.15,North,-999,-999.0,-999.0,98,0.00,,,0.00,meteohub,2013-05-21 10:17:00,
2013-05-21 06:22:00,59.5,59.0,30.15,North,-999,-999.0,-999.0,98,0.00,,,0.00,meteohub,2013-05-21 10:22:00,
2013-05-21 06:27:00,59.5,59.0,30.15,North,-999,-999.0,-999.0,98,0.00,,,0.00,meteohub,2013-05-21 10:27:00,
2013-05-21 06:32:00,59.5,59.0,30.15,North,-999,-999.0,-999.0,98,0.00,,,0.00,meteohub,2013-05-21 10:32:00,
2013-05-21 06:37:00,59.5,59.0,30.15,North,-999,-999.0,-999.0,98,0.00,,,0.00,meteohub,2013-05-21 10:37:00,
2013-05-21 06:42:00,59.4,58.8,30.15,North,-999,-999.0,-999.0,98,0.00,,,0.00,meteohub,2013-05-21 10:42:00,
2013-05-21 06:47:00,59.4,58.8,30.15,North,-999,-999.0,-999.0,98,0.00,,,0.00,meteohub,2013-05-21 10:47:00,
2013-05-21 06:52:00,59.5,59.0,30.15,North,-999,-999.0,-999.0,98,0.00,,,0.00,meteohub,2013-05-21 10:52:00,
2013-05-21 06:57:00,59.7,59.2,30.14,North,-999,-999.0,-999.0,98,0.00,,,0.00,meteohub,2013-05-21 10:57:00,
2013-05-21 07:02:00,59.7,59.2,30.14,North,-999,-999.0,-999.0,98,0.00,,,0.00,meteohub,2013-05-21 11:02:00,
2013-05-21 07:07:00,59.9,59.4,30.14,North,-999,-999.0,-999.0,98,0.00,,,0.00,meteohub,2013-05-21 11:07:00,
2013-05-21 07:12:00,59.9,59.4,30.14,North,-999,-999.0,-999.0,98,0.00,,,0.00,meteohub,2013-05-21 11:12:00,
2013-05-21 07:17:00,59.9,59.4,30.14,North,-999,-999.0,-999.0,98,0.00,,,0.00,meteohub,2013-05-21 11:17:00,
2013-05-21 07:22:00,60.1,59.5,30.14,WNW,292,1.0,-999.0,98,0.00,,,0.00,meteohub,2013-05-21 11:22:00,
2013-05-21 07:27:00,60.1,59.5,30.14,North,-999,-999.0,1.0,98,0.00,,,0.00,meteohub,2013-05-21 11:27:00,
2013-05-21 07:32:00,60.3,59.7,30.14,North,-999,-999.0,1.0,98,0.00,,,0.00,meteohub,2013-05-21 11:32:00,
2013-05-21 07:37:00,60.3,59.7,30.14,North,-999,-999.0,1.0,98,0.00,,,0.00,meteohub,2013-05-21 11:37:00,
2013-05-21 07:42:00,60.4,59.9,30.17,North,-999,-999.0,-999.0,98,0.00,,,0.00,meteohub,2013-05-21 11:42:00,
2013-05-21 07:47:00,60.6,60.1,30.17,North,-999,-999.0,-999.0,98,0.00,,,0.00,meteohub,2013-05-21 11:47:00,
2013-05-21 07:52:00,60.8,60.3,30.17,North,-999,-999.0,-999.0,98,0.00,,,0.00,meteohub,2013-05-21 11:52:00,
2013-05-21 07:57:00,61.2,60.6,30.13,North,-999,-999.0,-999.0,98,0.00,,,0.00,meteohub,2013-05-21 11:57:00,
2013-05-21 08:02:00,61.3,60.8,30.13,North,-999,-999.0,-999.0,98,0.00,,,0.00,meteohub,2013-05-21 12:02:00,
2013-05-21 08:07:00,61.7,61.2,30.13,North,-999,-999.0,-999.0,98,0.00,,,0.00,meteohub,2013-05-21 12:07:00,
2013-05-21 08:12:00,61.9,61.3,30.16,North,-999,-999.0,-999.0,98,0.00,,,0.00,meteohub,2013-05-21 12:12:00,
2013-05-21 08:17:00,62.2,61.7,30.16,North,-999,-999.0,-999.0,98,0.00,,,0.00,meteohub,2013-05-21 12:17:00,
2013-05-21 08:22:00,62.6,62.1,30.16,North,-999,-999.0,-999.0,98,0.00,,,0.00,meteohub,2013-05-21 12:22:00,
2013-05-21 08:27:00,63.0,62.4,30.15,North,-999,-999.0,-999.0,98,0.00,,,0.00,meteohub,2013-05-21 12:27:00,
2013-05-21 08:32:00,63.3,62.8,30.15,WNW,292,1.0,3.0,98,0.00,,,0.00,meteohub,2013-05-21 12:32:00,
2013-05-21 08:37:00,63.7,63.1,30.15,North,-999,-999.0,3.0,98,0.00,,,0.00,meteohub,2013-05-21 12:37:00,
2013-05-21 08:42:00,64.0,63.5,30.14,North,-999,-999.0,3.0,98,0.00,,,0.00,meteohub,2013-05-21 12:42:00,
2013-05-21 08:47:00,64.2,63.7,30.14,West,270,2.0,2.0,98,0.00,,,0.00,meteohub,2013-05-21 12:47:00,
2013-05-21 08:52:00,64.8,64.2,30.14,North,-999,-999.0,2.0,98,0.00,,,0.00,meteohub,2013-05-21 12:52:00,
2013-05-21 08:57:00,65.5,64.9,30.14,North,0,3.0,3.0,98,0.00,,,0.00,meteohub,2013-05-21 12:57:00,
2013-05-21 09:02:00,65.8,65.3,30.13,WNW,292,4.0,11.0,98,0.00,,,0.00,meteohub,2013-05-21 13:02:00,
2013-05-21 09:07:00,66.9,66.0,30.12,WSW,248,4.0,11.0,97,0.00,,,0.00,meteohub,2013-05-21 13:07:00,
2013-05-21 09:12:00,67.3,63.9,30.12,NW,315,5.0,11.0,89,0.00,,,0.00,meteohub,2013-05-21 13:12:00,
2013-05-21 09:17:00,67.8,62.1,30.12,North,-999,-999.0,5.0,82,0.00,,,0.00,meteohub,2013-05-21 13:17:00,
2013-05-21 09:22:00,68.9,62.1,30.11,NE,45,5.0,5.0,79,0.00,,,0.00,meteohub,2013-05-21 13:22:00,
2013-05-21 09:27:00,69.6,59.7,30.14,NE,45,2.0,5.0,71,0.00,,,0.00,meteohub,2013-05-21 13:27:00,
2013-05-21 09:32:00,69.8,56.7,30.14,WNW,292,2.0,5.0,63,0.00,,,0.00,meteohub,2013-05-21 13:32:00,
2013-05-21 09:37:00,70.3,56.7,30.13,WNW,292,4.0,5.0,62,0.00,,,0.00,meteohub,2013-05-21 13:37:00,
2013-05-21 09:42:00,71.1,57.0,30.13,NE,45,4.0,5.0,61,0.00,,,0.00,meteohub,2013-05-21 13:42:00,
2013-05-21 09:47:00,71.2,55.8,30.12,NW,315,0.0,5.0,58,0.00,,,0.00,meteohub,2013-05-21 13:47:00,
2013-05-21 09:52:00,71.8,56.3,30.12,North,0,5.0,5.0,58,0.00,,,0.00,meteohub,2013-05-21 13:52:00,
2013-05-21 09:57:00,72.5,55.9,30.08,West,270,3.0,5.0,56,0.00,,,0.00,meteohub,2013-05-21 13:57:00,
2013-05-21 10:02:00,73.0,55.9,30.08,North,-999,-999.0,5.0,55,0.00,,,0.00,meteohub,2013-05-21 14:02:00,
2013-05-21 10:07:00,73.4,53.6,30.08,NNE,22,4.0,5.0,50,0.00,,,0.00,meteohub,2013-05-21 14:07:00,
2013-05-21 10:12:00,73.2,52.3,30.08,North,-999,-999.0,4.0,48,0.00,,,0.00,meteohub,2013-05-21 14:12:00,
2013-05-21 10:17:00,73.6,50.9,30.07,WNW,292,6.0,6.0,45,0.00,,,0.00,meteohub,2013-05-21 14:17:00,
2013-05-21 10:22:00,74.1,53.2,30.07,North,-999,-999.0,6.0,48,0.00,,,0.00,meteohub,2013-05-21 14:22:00,
2013-05-21 10:27:00,73.9,51.3,30.11,NNE,22,6.0,6.0,45,0.00,,,0.00,meteohub,2013-05-21 14:27:00,
2013-05-21 10:32:00,74.3,51.6,30.10,NW,315,5.0,6.0,45,0.00,,,0.00,meteohub,2013-05-21 14:32:00,
2013-05-21 10:37:00,74.3,49.8,30.10,NNW,338,3.0,6.0,42,0.00,,,0.00,meteohub,2013-05-21 14:37:00,
2013-05-21 10:42:00,74.7,50.7,30.10,NW,315,5.0,6.0,43,0.00,,,0.00,meteohub,2013-05-21 14:42:00,
2013-05-21 10:47:00,75.2,49.8,30.10,North,0,5.0,6.0,41,0.00,,,0.00,meteohub,2013-05-21 14:47:00,
2013-05-21 10:52:00,74.7,49.5,30.10,North,0,2.0,6.0,41,0.00,,,0.00,meteohub,2013-05-21 14:52:00,
2013-05-21 10:57:00,74.8,49.6,30.06,NW,315,5.0,6.0,41,0.00,,,0.00,meteohub,2013-05-21 14:57:00,
2013-05-21 11:02:00,75.6,51.4,30.06,NW,315,2.0,5.0,43,0.00,,,0.00,meteohub,2013-05-21 15:02:00,
2013-05-21 11:07:00,76.5,51.6,30.05,NE,45,3.0,6.0,42,0.00,,,0.00,meteohub,2013-05-21 15:07:00,
2013-05-21 11:12:00,76.8,50.7,30.05,WNW,292,4.0,6.0,40,0.00,,,0.00,meteohub,2013-05-21 15:12:00,
2013-05-21 11:17:00,77.5,52.7,30.04,WNW,292,0.0,4.0,42,0.00,,,0.00,meteohub,2013-05-21 15:17:00,
2013-05-21 11:22:00,77.9,51.6,30.04,North,0,1.0,6.0,40,0.00,,,0.00,meteohub,2013-05-21 15:22:00,
2013-05-21 11:27:00,77.9,50.9,30.04,NW,315,4.0,6.0,39,0.00,,,0.00,meteohub,2013-05-21 15:27:00,
2013-05-21 11:32:00,77.7,48.7,30.04,WNW,292,5.0,8.0,36,0.00,,,0.00,meteohub,2013-05-21 15:32:00,
2013-05-21 11:37:00,78.3,49.1,30.04,NNE,22,3.0,8.0,36,0.00,,,0.00,meteohub,2013-05-21 15:37:00,
2013-05-21 11:42:00,79.0,50.5,30.04,WNW,292,4.0,5.0,37,0.00,,,0.00,meteohub,2013-05-21 15:42:00,
2013-05-21 11:47:00,78.4,50.7,30.04,WNW,292,2.0,5.0,38,0.00,,,0.00,meteohub,2013-05-21 15:47:00,
2013-05-21 11:52:00,77.2,49.6,30.05,NW,315,2.0,5.0,38,0.00,,,0.00,meteohub,2013-05-21 15:52:00,
2013-05-21 11:57:00,77.5,52.0,30.08,North,-999,-999.0,5.0,41,0.00,,,0.00,meteohub,2013-05-21 15:57:00,
2013-05-21 12:02:00,76.1,51.4,30.09,NW,315,3.0,4.0,42,0.00,,,0.00,meteohub,2013-05-21 16:02:00,
2013-05-21 12:07:00,75.0,51.6,30.10,NNE,22,6.0,6.0,44,0.00,,,0.00,meteohub,2013-05-21 16:07:00,
2013-05-21 12:12:00,74.5,51.1,30.10,NNE,22,2.0,6.0,44,0.00,,,0.00,meteohub,2013-05-21 16:12:00,
2013-05-21 12:17:00,75.7,52.3,30.09,ENE,68,3.0,6.0,44,0.00,,,0.00,meteohub,2013-05-21 16:17:00,
2013-05-21 12:22:00,76.1,52.0,30.09,East,90,3.0,4.0,43,0.00,,,0.00,meteohub,2013-05-21 16:22:00,
2013-05-21 12:27:00,74.3,50.4,30.10,NE,45,5.0,5.0,43,0.00,,,0.00,meteohub,2013-05-21 16:27:00,
2013-05-21 12:32:00,74.7,52.5,30.10,NW,315,3.0,5.0,46,0.00,,,0.00,meteohub,2013-05-21 16:32:00,
2013-05-21 12:37:00,76.3,54.0,30.09,NW,315,2.0,5.0,46,0.00,,,0.00,meteohub,2013-05-21 16:37:00,
2013-05-21 12:42:00,78.1,53.1,30.04,ENE,68,4.0,6.0,42,0.00,,,0.00,meteohub,2013-05-21 16:42:00,
2013-05-21 12:47:00,79.0,52.7,30.04,NW,315,4.0,6.0,40,0.00,,,0.00,meteohub,2013-05-21 16:47:00,
2013-05-21 12:52:00,77.5,52.0,30.04,West,270,3.0,6.0,41,0.00,,,0.00,meteohub,2013-05-21 16:52:00,
2013-05-21 12:57:00,76.1,50.0,30.06,WNW,292,3.0,6.0,40,0.00,,,0.00,meteohub,2013-05-21 16:57:00,
2013-05-21 13:02:00,75.2,49.8,30.06,NW,315,2.0,4.0,41,0.00,,,0.00,meteohub,2013-05-21 17:02:00,
2013-05-21 13:07:00,77.5,52.7,30.04,NNW,338,2.0,4.0,42,0.00,,,0.00,meteohub,2013-05-21 17:07:00,
2013-05-21 13:12:00,79.7,54.5,30.06,WNW,292,1.0,3.0,42,0.00,,,0.00,meteohub,2013-05-21 17:12:00,
2013-05-21 13:17:00,78.1,53.1,30.07,WNW,292,2.0,3.0,42,0.00,,,0.00,meteohub,2013-05-21 17:17:00,
2013-05-21 13:22:00,78.4,53.4,30.07,NNW,338,2.0,4.0,42,0.00,,,0.00,meteohub,2013-05-21 17:22:00,
2013-05-21 13:27:00,78.3,52.7,30.04,West,270,0.0,4.0,41,0.00,,,0.00,meteohub,2013-05-21 17:27:00,
2013-05-21 13:32:00,79.3,53.6,30.03,WNW,292,3.0,4.0,41,0.00,,,0.00,meteohub,2013-05-21 17:32:00,
2013-05-21 13:37:00,79.0,53.2,30.04,SSE,158,3.0,4.0,41,0.00,,,0.00,meteohub,2013-05-21 17:37:00,
2013-05-21 13:42:00,80.2,55.0,30.03,SSE,158,6.0,6.0,42,0.00,,,0.00,meteohub,2013-05-21 17:42:00,
2013-05-21 13:47:00,77.7,52.2,30.04,East,90,0.0,6.0,41,0.00,,,0.00,meteohub,2013-05-21 17:47:00,
2013-05-21 13:52:00,75.9,52.5,30.06,SSW,202,0.0,6.0,44,0.00,,,0.00,meteohub,2013-05-21 17:52:00,
2013-05-21 13:57:00,75.0,52.9,30.06,SSW,202,0.0,6.0,46,0.00,,,0.00,meteohub,2013-05-21 17:57:00,
2013-05-21 14:02:00,74.7,53.6,30.06,North,-999,-999.0,3.0,48,0.00,,,0.00,meteohub,2013-05-21 18:02:00,
2013-05-21 14:07:00,78.3,57.0,30.04,North,-999,-999.0,3.0,48,0.00,,,0.00,meteohub,2013-05-21 18:07:00,
2013-05-21 14:12:00,80.6,58.5,29.99,SSE,158,6.0,6.0,47,0.00,,,0.00,meteohub,2013-05-21 18:12:00,
2013-05-21 14:17:00,81.3,57.4,29.99,North,-999,-999.0,6.0,44,0.00,,,0.00,meteohub,2013-05-21 18:17:00,
2013-05-21 14:22:00,78.8,54.5,30.00,SSE,158,6.0,6.0,43,0.00,,,0.00,meteohub,2013-05-21 18:22:00,
2013-05-21 14:27:00,77.2,52.9,30.05,North,-999,-999.0,6.0,43,0.00,,,0.00,meteohub,2013-05-21 18:27:00,
2013-05-21 14:32:00,75.9,52.5,30.06,North,-999,-999.0,6.0,44,0.00,,,0.00,meteohub,2013-05-21 18:32:00,
2013-05-21 14:37:00,75.2,52.3,30.06,SSE,158,4.0,6.0,45,0.00,,,0.00,meteohub,2013-05-21 18:37:00,
2013-05-21 14:42:00,74.3,52.7,30.04,North,-999,-999.0,4.0,47,0.00,,,0.00,meteohub,2013-05-21 18:42:00,
2013-05-21 14:47:00,75.0,55.8,30.03,North,-999,-999.0,4.0,51,0.00,,,0.00,meteohub,2013-05-21 18:47:00,
2013-05-21 14:52:00,74.5,55.2,30.04,North,-999,-999.0,-999.0,51,0.00,,,0.00,meteohub,2013-05-21 18:52:00,
2013-05-21 14:57:00,74.1,55.4,30.04,North,-999,-999.0,-999.0,52,0.00,,,0.00,meteohub,2013-05-21 18:57:00,
2013-05-21 15:02:00,73.2,55.6,30.04,North,-999,-999.0,-999.0,54,0.00,,,0.00,meteohub,2013-05-21 19:02:00,
2013-05-21 15:07:00,72.7,55.6,30.05,SSE,158,5.0,-999.0,55,0.00,,,0.00,meteohub,2013-05-21 19:07:00,
2013-05-21 15:12:00,72.3,55.8,30.05,SSE,158,5.0,5.0,56,0.00,,,0.00,meteohub,2013-05-21 19:12:00,
2013-05-21 15:17:00,73.2,57.6,30.04,SSE,158,4.0,5.0,58,0.00,,,0.00,meteohub,2013-05-21 19:17:00,
2013-05-21 15:21:00,75.0,59.7,30.03,North,-999,-999.0,5.0,59,0.00,,,0.00,meteohub,2013-05-21 19:21:00,
2013-05-21 15:27:00,77.9,59.9,30.01,North,-999,-999.0,5.0,54,0.00,,,0.00,meteohub,2013-05-21 19:27:00,
2013-05-21 15:32:00,79.9,59.5,29.99,SSE,158,6.0,-999.0,50,0.00,,,0.00,meteohub,2013-05-21 19:32:00,
2013-05-21 15:37:00,81.3,59.2,29.99,ESE,112,8.0,8.0,47,0.00,,,0.00,meteohub,2013-05-21 19:37:00,
2013-05-21 15:42:00,81.7,58.3,29.98,SSE,158,5.0,9.0,45,0.00,,,0.00,meteohub,2013-05-21 19:42:00,
2013-05-21 15:47:00,82.4,57.7,29.98,North,-999,-999.0,9.0,43,0.00,,,0.00,meteohub,2013-05-21 19:47:00,
2013-05-21 15:52:00,82.9,56.8,29.97,SSE,158,8.0,9.0,41,0.00,,,0.00,meteohub,2013-05-21 19:52:00,
2013-05-21 15:57:00,82.6,55.8,29.98,North,-999,-999.0,8.0,40,0.00,,,0.00,meteohub,2013-05-21 19:57:00,
2013-05-21 16:02:00,82.8,56.7,29.97,North,-999,-999.0,8.0,41,0.00,,,0.00,meteohub,2013-05-21 20:02:00,
2013-05-21 16:07:00,82.8,55.9,29.97,SSE,158,5.0,8.0,40,0.00,,,0.00,meteohub,2013-05-21 20:07:00,
2013-05-21 16:12:00,82.0,54.7,29.95,SSE,158,6.0,6.0,39,0.00,,,0.00,meteohub,2013-05-21 20:12:00,
2013-05-21 16:17:00,82.0,55.4,29.95,SSE,158,6.0,8.0,40,0.00,,,0.00,meteohub,2013-05-21 20:17:00,
2013-05-21 16:22:00,80.2,53.1,29.96,North,-999,-999.0,8.0,39,0.00,,,0.00,meteohub,2013-05-21 20:22:00,
2013-05-21 16:27:00,78.1,52.5,30.01,North,-999,-999.0,8.0,41,0.00,,,0.00,meteohub,2013-05-21 20:27:00,
2013-05-21 16:32:00,77.9,54.3,30.01,SE,135,8.0,8.0,44,0.00,,,0.00,meteohub,2013-05-21 20:32:00,
2013-05-21 16:37:00,77.7,54.1,30.01,North,-999,-999.0,8.0,44,0.00,,,0.00,meteohub,2013-05-21 20:37:00,
2013-05-21 16:42:00,77.5,54.5,29.98,North,-999,-999.0,8.0,45,0.00,,,0.00,meteohub,2013-05-21 20:42:00,
2013-05-21 16:47:00,77.2,54.1,29.98,North,-999,-999.0,-999.0,45,0.00,,,0.00,meteohub,2013-05-21 20:47:00,
2013-05-21 16:52:00,75.7,53.4,29.99,SE,135,7.0,-999.0,46,0.00,,,0.00,meteohub,2013-05-21 20:52:00,
2013-05-21 16:57:00,74.7,54.9,30.00,SSE,158,6.0,8.0,50,0.00,,,0.00,meteohub,2013-05-21 20:57:00,
2013-05-21 17:02:00,74.7,56.5,30.00,SSE,158,6.0,8.0,53,0.00,,,0.00,meteohub,2013-05-21 21:02:00,
2013-05-21 17:07:00,75.0,56.7,30.00,SSE,158,7.0,8.0,53,0.00,,,0.00,meteohub,2013-05-21 21:07:00,
2013-05-21 17:12:00,75.6,57.7,29.99,SSE,158,10.0,10.0,54,0.00,,,0.00,meteohub,2013-05-21 21:12:00,
2013-05-21 17:17:00,75.9,57.6,29.99,SSE,158,7.0,10.0,53,0.00,,,0.00,meteohub,2013-05-21 21:17:00,
2013-05-21 17:22:00,75.4,56.5,29.99,South,180,11.0,11.0,52,0.00,,,0.00,meteohub,2013-05-21 21:22:00,
2013-05-21 17:27:00,73.9,55.8,30.00,SE,135,10.0,11.0,53,0.00,,,0.00,meteohub,2013-05-21 21:27:00,
2013-05-21 17:32:00,73.0,55.4,30.01,SSE,158,5.0,11.0,54,0.00,,,0.00,meteohub,2013-05-21 21:32:00,
2013-05-21 17:37:00,73.4,55.8,30.01,SSE,158,6.0,10.0,54,0.00,,,0.00,meteohub,2013-05-21 21:37:00,
2013-05-21 17:42:00,74.1,56.5,30.00,SSE,158,6.0,8.0,54,0.00,,,0.00,meteohub,2013-05-21 21:42:00,
2013-05-21 17:47:00,74.8,57.0,30.00,SSE,158,6.0,9.0,54,0.00,,,0.00,meteohub,2013-05-21 21:47:00,
2013-05-21 17:52:00,75.2,56.8,29.99,ESE,112,10.0,11.0,53,0.00,,,0.00,meteohub,2013-05-21 21:52:00,
2013-05-21 17:57:00,74.7,55.9,30.00,SSE,158,8.0,12.0,52,0.00,,,0.00,meteohub,2013-05-21 21:57:00,
2013-05-21 18:02:00,74.1,55.4,30.00,SE,135,7.0,12.0,52,0.00,,,0.00,meteohub,2013-05-21 22:02:00,
2013-05-21 18:07:00,73.9,55.2,30.00,SSE,158,6.0,12.0,52,0.00,,,0.00,meteohub,2013-05-21 22:07:00,
2013-05-21 18:12:00,73.6,54.9,30.01,SSE,158,9.0,11.0,52,0.00,,,0.00,meteohub,2013-05-21 22:12:00,
2013-05-21 18:17:00,73.6,55.4,30.01,SSE,158,7.0,9.0,53,0.00,,,0.00,meteohub,2013-05-21 22:17:00,
2013-05-21 18:22:00,73.4,55.8,30.01,SSE,158,8.0,10.0,54,0.00,,,0.00,meteohub,2013-05-21 22:22:00,
2013-05-21 18:27:00,72.9,55.8,30.01,SSE,158,6.0,10.0,55,0.00,,,0.00,meteohub,2013-05-21 22:27:00,
2013-05-21 18:32:00,72.9,55.8,30.01,SSE,158,9.0,9.0,55,0.00,,,0.00,meteohub,2013-05-21 22:32:00,
2013-05-21 18:37:00,73.0,56.5,30.01,SSE,158,6.0,10.0,56,0.00,,,0.00,meteohub,2013-05-21 22:37:00,
2013-05-21 18:42:00,72.7,56.1,30.01,SE,135,8.0,10.0,56,0.00,,,0.00,meteohub,2013-05-21 22:42:00,
2013-05-21 18:47:00,72.3,56.7,30.01,SSE,158,11.0,11.0,58,0.00,,,0.00,meteohub,2013-05-21 22:47:00,
2013-05-21 18:52:00,72.1,56.5,30.02,SSE,158,7.0,11.0,58,0.00,,,0.00,meteohub,2013-05-21 22:52:00,
2013-05-21 18:57:00,71.4,56.8,30.02,SSE,158,9.0,11.0,60,0.00,,,0.00,meteohub,2013-05-21 22:57:00,
2013-05-21 19:02:00,70.9,56.8,30.03,SSE,158,8.0,11.0,61,0.00,,,0.00,meteohub,2013-05-21 23:02:00,
2013-05-21 19:07:00,70.5,57.4,30.03,SSE,158,6.0,10.0,63,0.00,,,0.00,meteohub,2013-05-21 23:07:00,
2013-05-21 19:12:00,70.0,58.1,30.03,North,-999,-999.0,8.0,66,0.00,,,0.00,meteohub,2013-05-21 23:12:00,
2013-05-21 19:17:00,69.1,58.5,30.04,SSW,202,7.0,10.0,69,0.00,,,0.00,meteohub,2013-05-21 23:17:00,
2013-05-21 19:22:00,68.4,58.3,30.04,North,-999,-999.0,10.0,70,0.00,,,0.00,meteohub,2013-05-21 23:22:00,
2013-05-21 19:26:00,67.3,57.2,30.05,North,-999,-999.0,10.0,70,0.00,,,0.00,meteohub,2013-05-21 23:26:00,
2013-05-21 19:31:00,66.6,56.1,30.06,North,-999,-999.0,7.0,69,0.00,,,0.00,meteohub,2013-05-21 23:31:00,
2013-05-21 19:36:00,66.0,57.6,30.06,North,-999,-999.0,-999.0,74,0.00,,,0.00,meteohub,2013-05-21 23:36:00,
2013-05-21 19:41:00,65.8,58.1,30.10,North,-999,-999.0,-999.0,76,0.00,,,0.00,meteohub,2013-05-21 23:41:00,
2013-05-21 19:47:00,65.5,59.2,30.10,East,90,2.0,-999.0,80,0.00,,,0.00,meteohub,2013-05-21 23:47:00,
2013-05-21 19:52:00,64.4,58.5,30.11,ESE,112,3.0,3.0,81,0.21,,,0.21,meteohub,2013-05-21 23:52:00,
2013-05-21 19:57:00,64.2,58.6,30.11,SSE,158,3.0,3.0,82,0.21,,,0.21,meteohub,2013-05-21 23:57:00,
2013-05-21 20:02:00,64.2,59.9,30.11,SSE,158,6.0,6.0,86,0.38,,,0.38,meteohub,2013-05-22 00:02:00,
2013-05-21 20:07:00,64.2,61.0,30.11,SSE,158,5.0,6.0,89,0.38,,,0.38,meteohub,2013-05-22 00:07:00,
2013-05-21 20:12:00,64.2,61.2,30.11,SSE,158,4.0,7.0,90,0.42,,,0.42,meteohub,2013-05-22 00:12:00,
2013-05-21 20:17:00,64.2,61.2,30.11,SSE,158,5.0,7.0,90,0.46,,,0.46,meteohub,2013-05-22 00:17:00,
2013-05-21 20:22:00,64.0,61.0,30.11,SSE,158,4.0,6.0,90,0.46,,,0.46,meteohub,2013-05-22 00:22:00,
2013-05-21 20:27:00,63.9,60.6,30.11,SSE,158,6.0,6.0,89,0.46,,,0.46,meteohub,2013-05-22 00:27:00,
2013-05-21 20:32:00,64.0,61.0,30.11,SSE,158,7.0,10.0,90,0.46,,,0.46,meteohub,2013-05-22 00:32:00,
2013-05-21 20:37:00,64.2,61.5,30.11,SSE,158,6.0,10.0,91,0.46,,,0.46,meteohub,2013-05-22 00:37:00,
2013-05-21 20:42:00,64.4,61.7,30.11,SSE,158,7.0,10.0,91,0.46,,,0.46,meteohub,2013-05-22 00:42:00,
2013-05-21 20:47:00,64.4,62.1,30.11,SSE,158,9.0,9.0,92,0.29,,,0.46,meteohub,2013-05-22 00:47:00,
2013-05-21 20:52:00,64.6,62.2,30.11,South,180,6.0,11.0,92,0.08,,,0.46,meteohub,2013-05-22 00:52:00,
2013-05-21 20:57:00,64.6,62.2,30.11,SSE,158,6.0,11.0,92,0.08,,,0.46,meteohub,2013-05-22 00:57:00,
2013-05-21 21:02:00,64.6,61.9,30.11,SE,135,6.0,11.0,91,0.04,,,0.46,meteohub,2013-05-22 01:02:00,
2013-05-21 21:07:00,64.8,62.1,30.11,South,180,6.0,8.0,91,0.00,,,0.46,meteohub,2013-05-22 01:07:00,
2013-05-21 21:12:00,64.8,62.1,30.11,SSE,158,6.0,11.0,91,0.00,,,0.46,meteohub,2013-05-22 01:12:00,
2013-05-21 21:17:00,64.6,61.9,30.11,SE,135,4.0,11.0,91,0.00,,,0.46,meteohub,2013-05-22 01:17:00,
2013-05-21 21:22:00,64.6,61.5,30.11,SSE,158,4.0,9.0,90,0.00,,,0.46,meteohub,2013-05-22 01:22:00,
2013-05-21 21:27:00,64.4,61.3,30.11,ESE,112,3.0,8.0,90,0.00,,,0.46,meteohub,2013-05-22 01:27:00,
2013-05-21 21:31:00,64.4,61.3,30.11,SSE,158,3.0,6.0,90,0.00,,,0.46,meteohub,2013-05-22 01:31:00,
2013-05-21 21:36:00,64.4,61.3,30.11,South,180,4.0,5.0,90,0.00,,,0.46,meteohub,2013-05-22 01:36:00,
2013-05-21 21:41:00,64.4,61.7,30.11,SE,135,6.0,6.0,91,0.00,,,0.46,meteohub,2013-05-22 01:41:00,
2013-05-21 21:46:00,64.4,61.7,30.11,South,180,1.0,6.0,91,0.00,,,0.46,meteohub,2013-05-22 01:46:00,
2013-05-21 21:52:00,64.4,61.7,30.11,SSW,202,0.0,6.0,91,0.00,,,0.46,meteohub,2013-05-22 01:52:00,
2013-05-21 21:57:00,64.2,61.9,30.11,WNW,292,2.0,6.0,92,0.00,,,0.46,meteohub,2013-05-22 01:57:00,
2013-05-21 22:02:00,64.0,61.3,30.11,NW,315,3.0,3.0,91,0.00,,,0.46,meteohub,2013-05-22 02:02:00,
2013-05-21 22:07:00,63.3,60.6,30.12,NW,315,4.0,4.0,91,0.00,,,0.46,meteohub,2013-05-22 02:07:00,
2013-05-21 22:12:00,62.6,59.4,30.12,NW,315,3.0,4.0,89,0.00,,,0.46,meteohub,2013-05-22 02:12:00,
2013-05-21 22:17:00,61.7,57.7,30.13,NW,315,5.0,5.0,87,0.00,,,0.46,meteohub,2013-05-22 02:17:00,
2013-05-21 22:22:00,61.0,56.5,30.14,NNW,338,5.0,7.0,85,0.00,,,0.46,meteohub,2013-05-22 02:22:00,
2013-05-21 22:27:00,60.6,56.5,30.14,WNW,292,2.0,7.0,86,0.00,,,0.46,meteohub,2013-05-22 02:27:00,
2013-05-21 22:32:00,60.4,56.5,30.14,WNW,292,5.0,7.0,87,0.00,,,0.46,meteohub,2013-05-22 02:32:00,
2013-05-21 22:37:00,60.1,55.9,30.14,NNW,338,6.0,6.0,86,0.00,,,0.46,meteohub,2013-05-22 02:37:00,
2013-05-21 22:42:00,59.7,54.9,30.14,WNW,292,3.0,6.0,84,0.00,,,0.46,meteohub,2013-05-22 02:42:00,
2013-05-21 22:47:00,59.5,55.0,30.15,NW,315,3.0,6.0,85,0.00,,,0.46,meteohub,2013-05-22 02:47:00,
2013-05-21 22:52:00,59.4,55.2,30.15,WNW,292,4.0,7.0,86,0.00,,,0.46,meteohub,2013-05-22 02:52:00,
2013-05-21 22:57:00,59.2,55.4,30.15,WNW,292,4.0,7.0,87,0.00,,,0.46,meteohub,2013-05-22 02:57:00,
2013-05-21 23:02:00,59.0,55.4,30.15,WNW,292,4.0,7.0,88,0.00,,,0.46,meteohub,2013-05-22 03:02:00,
2013-05-21 23:07:00,58.8,55.9,30.15,NW,315,4.0,7.0,90,0.00,,,0.46,meteohub,2013-05-22 03:07:00,
2013-05-21 23:12:00,59.0,55.8,30.15,WNW,292,5.0,7.0,89,0.00,,,0.46,meteohub,2013-05-22 03:12:00,
2013-05-21 23:17:00,58.8,55.9,30.15,NW,315,4.0,7.0,90,0.00,,,0.46,meteohub,2013-05-22 03:17:00,
2013-05-21 23:22:00,58.8,56.1,30.15,NW,315,4.0,7.0,91,0.00,,,0.46,meteohub,2013-05-22 03:22:00,
2013-05-21 23:27:00,58.6,56.3,30.19,NW,315,4.0,6.0,92,0.00,,,0.46,meteohub,2013-05-22 03:27:00,
2013-05-21 23:32:00,58.5,56.5,30.19,WNW,292,6.0,6.0,93,0.00,,,0.46,meteohub,2013-05-22 03:32:00,
2013-05-21 23:37:00,58.5,56.5,30.19,WNW,292,3.0,6.0,93,0.00,,,0.46,meteohub,2013-05-22 03:37:00,
2013-05-21 23:42:00,58.5,56.5,30.16,NW,315,3.0,6.0,93,0.00,,,0.46,meteohub,2013-05-22 03:42:00,
2013-05-21 23:47:00,58.3,55.9,30.16,WNW,292,3.0,5.0,92,0.00,,,0.46,meteohub,2013-05-22 03:47:00,
2013-05-21 23:52:00,58.3,56.3,30.16,WNW,292,3.0,5.0,93,0.00,,,0.46,meteohub,2013-05-22 03:52:00,
2013-05-21 23:57:00,58.1,56.1,30.19,NW,315,3.0,5.0,93,0.00,,,0.46,meteohub,2013-05-22 03:57:00,